Temperature
11 11 12 12 12 13 12 13 13 13 14 14 13 13 14 15 15 15 14 14 14 15 15 16 17 18 18 18 18 19 19 19 19 18 17 16 15 14 14 14 13 13 13 13
11 12 12 12 12 13 13 13 13 13 13 14 12 12 13 13 14 15 14 13 13 13 14 15 16 17 17 18 18 18 18 18 18 17 16 15 14 13 13 13 13 13 13 13
12 12 13 13 12 12 12 12 13 13 12 13 13 13 14 14 14 14 14 13 13 14 14 15 15 16 17 17 17 17 17 17 17 16 15 14 13 12 12 12 12 12 12 12
11 12 13 12 12 12 12 13 13 13 13 12 13 12 13 13 13 12 12 12 13 13 13 14 15 15 16 15 15 16 16 15 15 14 14 13 13 13 12 11 11 11 11 11
11 11 12 12 12 12 13 14 13 13 13 12 12 12 12 13 13 12 11 12 12 13 13 13 14 14 14 14 14 14 14 14 13 13 13 13 12 12 11 12 12 12 11 11
11 11 12 12 12 13 13 13 12 11 11 12 12 12 12 12 12 12 11 12 12 12 12 13 13 13 13 13 13 13 14 13 13 13 12 12 12 12 12 12 12 11 11 11
10 11 11 12 12 12 13 13 12 12 11 11 12 11 12 13 13 12 11 12 12 12 12 12 12 12 12 13 13 13 13 12 12 12 12 12 11 11 11 11 10 10 10 10
10 10 11 12 12 12 12 12 11 12 11 11 11 10 12 13 12 13 13 13 12 12 12 12 12 12 12 12 12 12 12 12 11 11 11 11 10 10 10 9 9 9 8 8
11 11 11 12 13 13 11 11 12 11 12 11 11 11 12 13 11 10 11 12 12 12 12 12 12 12 12 12 11 11 11 11 11 10 10 10 9 9 9 8 8 7 7 6
11 10 11 12 12 12 12 11 10 12 12 12 12 12 13 14 13 11 9 10 12 12 12 12 11 11 11 11 11 11 10 10 10 9 9 9 8 8 8 7 7 6 6 5
11 10 10 11 12 11 11 11 11 11 10 11 12 13 13 12 12 10 10 11 12 12 12 12 11 11 11 10 10 10 10 9 9 8 8 7 7 7 6 6 5 5 5 5
11 10 10 11 12 12 12 11 10 11 10 9 10 12 13 10 10 10 11 11 12 13 12 12 11 10 10 9 9 9 8 8 8 7 7 7 6 6 5 5 5 4 4 4
11 10 11 11 12 12 12 11 11 10 9 8 10 12 12 10 10 11 12 12 12 12 12 11 10 10 9 9 8 8 8 7 7 6 6 6 5 5 4 4 4 4 4 4
12 11 11 11 11 10 11 11 10 10 10 9 10 12 13 13 12 12 12 12 13 12 12 11 10 9 8 8 7 7 7 6 6 6 5 4 4 4 3 3 3 3 3 3
12 12 12 11 11 11 11 11 10 11 10 10 11 11 12 13 12 12 12 12 11 11 10 10 9 8 7 7 7 6 6 6 5 4 4 3 3 3 3 3 3 3 2 2
11 11 12 11 11 12 12 11 10 11 11 11 12 11 12 11 11 11 10 10 10 10 9 9 8 7 7 6 6 6 5 4 4 3 3 2 2 2 2 2 2 2 2 1
10 11 11 10 12 13 12 11 10 10 11 10 11 11 11 10 9 9 9 10 10 10 10 9 8 7 6 6 5 5 4 3 3 2 2 2 2 2 1 1 1 1 1 0
10 10 9 9 12 11 12 11 10 10 9 10 11 10 10 9 8 9 10 11 11 11 10 8 7 6 6 5 4 4 3 2 2 2 2 1 1 1 1 0 0 -0 -1 -1
9 9 9 8 10 11 11 10 9 9 9 9 9 8 8 8 9 9 11 11 11 10 9 7 6 5 5 4 3 2 2 2 1 1 1 1 0 0 -0 -0 -1 -2 -2 -3
8 8 8 8 10 10 11 11 11 9 8 9 8 8 8 8 7 8 10 10 9 8 7 6 5 4 4 3 2 2 1 1 1 1 0 -0 -0 -1 -1 -2 -2 -3 -3 -4
8 8 8 8 9 10 11 10 10 10 9 9 9 9 9 8 8 9 9 8 7 6 5 5 4 3 2 2 1 1 0 0 0 -0 -0 -1 -1 -1 -2 -3 -3 -4 -4 -4
7 7 7 7 9 9 10 9 9 9 9 9 9 9 9 8 8 8 7 7 6 5 4 3 3 2 1 0 -0 -0 -0 -0 -0 -0 -1 -1 -2 -2 -3 -4 -4 -4 -5 -5
6 7 7 8 8 8 9 9 10 10 9 9 9 8 8 7 7 7 6 5 5 4 3 2 1 1 -0 -0 -1 -1 -1 -1 -1 -1 -1 -2 -2 -3 -4 -4 -5 -5 -6 -6
6 6 6 6 7 7 8 9 9 9 9 8 8 7 7 6 6 6 5 5 4 3 2 1 0 -0 -1 -1 -1 -1 -1 -1 -1 -2 -2 -3 -3 -4 -4 -5 -5 -6 -7 -8
6 5 6 6 6 6 7 8 8 8 8 7 7 7 6 6 5 5 4 3 2 1 1 0 -0 -1 -0 -1 -1 -1 -2 -2 -2 -3 -3 -4 -4 -4 -5 -5 -6 -7 -8 -10
4 5 6 6 6 5 7 8 8 7 7 7 6 6 5 5 4 4 3 2 1 1 0 -0 -1 -1 -1 -1 -1 -2 -2 -3 -3 -4 -4 -4 -5 -5 -6 -7 -7 -8 -9 -10
Wind_Speed
11 11 13 13 11 8 8 8 7 8 5 4 10 15 18 9 4 4 3 2 4 6 6 8 9 9 9 11 11 11 11 9 5 3 3 2 2 2 3 3 4 5 5 5
12 16 12 10 9 7 6 5 5 7 3 4 9 12 12 7 5 6 7 5 4 5 7 9 10 10 10 10 10 11 12 11 9 5 4 4 5 6 6 8 10 12 11 11
12 8 12 10 8 8 6 7 6 6 9 6 7 10 8 4 1 5 7 6 6 6 6 6 8 9 9 11 10 11 13 14 13 10 7 7 6 5 7 8 8 8 11 12
9 6 13 13 10 10 8 7 5 4 4 6 4 7 9 6 2 4 6 7 6 6 5 5 6 8 9 8 9 11 13 14 14 12 13 14 10 8 6 5 6 8 9 10
9 9 15 15 10 10 6 5 6 4 4 5 3 5 9 4 6 8 8 8 7 7 7 6 6 7 7 7 8 10 12 14 12 12 12 12 10 6 5 5 8 9 8 8
3 4 8 8 7 8 6 6 5 4 3 5 6 7 8 6 8 7 9 9 9 8 7 6 6 7 8 7 8 9 12 12 11 12 11 11 10 9 9 9 9 7 6 7
6 4 4 6 9 5 5 5 1 1 1 7 4 5 10 8 6 8 13 12 10 9 8 7 8 7 7 8 8 9 11 11 10 11 11 10 9 9 10 8 8 8 7 6
10 9 10 8 8 9 9 9 7 7 5 5 2 7 9 5 6 6 10 12 10 9 7 8 8 7 7 8 7 8 10 9 9 10 9 9 9 7 7 7 7 7 6 6
10 6 5 6 6 13 10 8 6 5 2 4 6 7 9 1 6 3 11 12 11 10 9 8 7 7 7 7 7 7 9 9 9 8 9 9 9 8 8 7 7 6 6 7
8 6 6 6 6 4 9 11 6 5 4 5 7 6 5 7 4 3 9 11 10 9 8 8 7 6 6 6 6 7 8 9 8 8 8 8 8 8 7 7 8 7 8 8
5 7 5 6 9 10 7 6 6 7 5 5 4 7 5 8 7 7 9 8 9 10 9 8 7 7 7 6 7 7 8 8 8 8 8 8 7 7 7 6 7 7 7 8
5 6 5 4 2 8 8 10 9 7 6 6 3 7 6 7 6 6 8 7 7 8 8 8 8 8 7 7 7 7 7 8 7 7 7 7 6 6 7 7 7 7 8 8
7 7 8 4 1 2 5 7 7 7 6 6 6 7 5 5 4 5 8 8 7 8 8 8 8 7 7 7 7 7 7 7 6 6 6 6 6 7 7 7 8 8 8 8
6 5 8 12 9 9 7 7 7 8 6 7 8 7 5 4 3 3 5 7 7 8 9 8 8 7 7 7 6 6 6 5 5 5 6 6 6 7 7 7 8 8 8 9
5 5 4 3 5 10 9 11 12 10 10 10 9 9 8 4 2 2 4 7 8 8 8 9 8 7 7 6 5 5 5 5 5 5 5 5 6 6 7 7 8 8 8 10
4 6 4 3 3 4 4 10 14 11 8 8 5 7 6 2 3 4 4 7 7 8 8 8 8 8 6 6 5 4 4 4 4 4 5 5 6 7 7 8 8 8 9 10
4 6 5 3 2 4 5 8 11 7 6 9 10 8 4 4 5 3 2 4 6 8 9 9 8 7 6 5 5 4 3 3 4 4 5 6 6 7 7 9 9 9 10 11
7 6 5 5 5 6 6 1 7 8 3 2 4 4 4 6 4 2 1 3 5 7 8 8 7 6 5 4 4 4 4 3 4 5 6 6 7 7 8 8 9 9 9 11
3 7 5 5 5 5 5 4 8 8 2 1 6 6 6 4 4 3 2 2 5 7 7 6 6 6 6 5 4 4 3 3 4 5 6 7 7 7 8 9 9 9 10 12
6 5 6 5 5 8 6 5 6 8 2 2 5 7 6 4 3 2 1 3 5 6 6 7 7 7 6 4 4 3 3 4 5 6 7 7 7 7 8 9 8 8 10 11
4 5 5 5 4 7 3 3 6 6 7 6 6 7 6 5 4 2 4 5 6 7 7 7 7 6 5 3 3 2 2 4 5 6 7 7 7 8 8 7 7 10 11 12
8 7 6 6 5 7 3 8 8 5 7 7 7 6 6 4 2 3 5 6 7 7 7 7 7 5 3 2 2 1 3 5 6 6 7 8 8 8 9 9 9 9 10 12
6 6 6 7 5 0 1 5 6 9 8 7 7 6 6 5 3 4 6 7 7 7 6 5 6 5 3 2 1 2 4 6 6 7 8 8 9 8 8 9 10 10 9 10
3 3 4 3 2 1 5 7 6 6 7 6 6 6 6 5 4 4 5 6 6 6 5 5 5 3 1 1 2 4 6 6 6 7 8 8 8 8 8 7 7 9 10 11
5 6 5 3 4 6 3 5 6 6 6 6 5 4 4 5 4 5 5 6 6 5 5 5 4 2 1 3 4 5 6 6 6 8 8 8 8 8 8 8 7 10 9 12
4 7 7 6 8 7 7 6 6 7 5 5 5 5 4 4 6 6 6 6 6 6 5 4 3 0 3 4 6 7 6 6 6 7 7 7 7 7 8 10 11 15 16 22
Wind_Direction
184 185 190 184 180 159 158 173 220 250 265 284 266 269 276 284 243 211 178 136 65 44 16 17 20 19 24 26 27 26 31 21 37 72 89 91 50 25 24 15 6 0 353 338
186 203 184 160 150 134 148 177 237 280 286 247 278 278 272 264 227 192 172 156 112 75 41 27 26 29 32 30 28 35 38 36 40 60 75 84 83 59 55 50 46 42 40 35
198 174 158 151 151 163 182 194 224 270 329 327 312 300 295 297 125 125 130 130 121 108 88 55 42 39 38 36 31 46 45 45 45 51 66 66 59 51 42 35 35 30 36 35
215 162 161 167 171 164 215 207 214 269 324 298 350 306 290 282 223 163 140 133 135 124 107 87 68 55 46 38 39 50 53 52 49 54 68 72 72 65 40 30 28 25 28 29
198 174 170 183 178 164 183 173 191 225 226 276 284 257 281 286 236 213 182 168 164 151 131 108 86 75 60 50 53 57 62 59 55 60 67 74 73 68 51 36 30 24 18 20
145 162 171 164 146 156 121 90 76 55 93 272 233 208 279 246 221 202 179 177 176 164 143 116 96 86 72 61 61 65 71 63 58 64 64 70 70 58 47 34 25 16 8 9
162 171 176 143 132 139 133 123 115 281 260 250 235 213 252 255 232 198 178 177 178 171 153 134 114 97 85 75 71 73 78 69 60 63 60 59 60 56 48 33 21 15 6 0
168 186 186 173 162 158 174 165 173 193 224 274 228 235 255 282 290 230 168 161 162 169 162 147 132 117 103 92 83 82 81 74 64 64 61 54 52 51 42 30 21 13 2 351
167 182 169 185 157 148 162 191 174 136 219 267 269 274 300 296 17 109 148 154 166 171 167 155 137 121 114 103 91 89 87 76 64 63 65 53 46 42 33 23 17 8 358 355
133 144 168 148 116 150 160 150 138 168 204 258 286 281 274 314 329 170 171 171 170 165 164 154 138 126 116 106 93 79 78 76 65 59 58 58 43 35 26 19 11 1 351 346
129 131 149 156 179 163 130 149 154 157 167 177 278 284 248 276 274 215 196 182 168 166 165 154 138 127 116 99 85 75 68 66 60 60 58 50 37 26 19 13 0 349 342 339
148 121 133 182 225 176 157 166 150 162 203 179 189 272 298 298 280 185 168 166 162 162 157 145 136 126 111 95 79 69 63 61 59 62 58 46 29 18 11 360 350 344 341 336
151 123 119 123 166 173 170 168 162 138 132 159 174 261 318 19 64 132 153 161 160 155 145 135 130 122 111 96 81 68 60 59 61 63 54 37 19 8 359 348 343 343 340 336
137 131 166 184 192 168 179 180 162 145 170 188 211 246 303 6 67 132 157 160 155 150 143 136 127 116 107 95 84 74 61 58 66 59 45 27 8 355 346 338 338 339 337 337
134 135 143 150 167 160 172 180 177 187 185 186 215 217 238 240 204 147 143 141 139 140 139 138 131 122 113 102 91 82 70 58 60 51 34 10 350 342 340 337 336 334 334 337
124 133 121 79 108 151 174 190 188 196 192 201 196 227 239 219 115 89 110 140 146 147 141 136 133 131 128 124 115 99 79 61 55 42 16 352 344 341 339 334 333 332 331 330
139 140 124 132 131 118 234 205 185 188 187 176 203 219 173 128 104 87 99 135 151 152 148 148 149 147 142 136 128 115 91 65 49 24 358 345 338 334 330 332 334 333 331 330
135 116 110 126 140 212 237 87 149 134 105 196 157 127 121 123 112 66 68 144 152 152 152 153 148 137 125 114 109 105 81 52 27 3 343 333 328 324 324 328 330 328 326 326
107 128 121 136 175 252 275 179 150 132 81 357 138 121 106 122 88 24 43 125 160 160 151 142 133 126 116 108 108 100 64 28 4 342 326 319 319 322 327 327 324 322 322 320
49 87 113 132 164 224 224 148 142 106 125 270 136 136 139 118 98 266 244 117 121 118 115 116 115 113 109 99 98 85 37 0 333 316 308 308 314 319 318 312 310 312 313 310
94 77 111 145 198 252 208 135 125 158 199 171 148 146 152 162 186 217 124 119 121 118 119 122 118 112 107 96 91 68 348 314 301 302 306 312 315 315 307 304 306 307 309 311
155 149 164 151 189 241 158 139 166 163 127 138 151 161 168 184 162 124 141 140 136 129 126 122 117 116 110 105 107 331 301 293 300 308 311 312 311 311 315 308 304 302 307 313
186 178 176 181 195 260 121 144 133 129 134 156 164 174 165 164 163 159 161 157 151 141 132 123 129 134 134 135 151 300 296 305 313 316 313 309 306 299 296 296 303 310 311 313
225 139 124 148 221 115 102 110 119 127 141 154 153 153 152 154 150 153 155 154 147 137 135 130 136 147 178 286 311 292 298 309 315 311 307 303 300 297 291 293 297 306 310 309
167 151 140 152 142 115 144 151 140 121 113 115 110 113 131 139 135 148 156 157 152 143 136 137 144 161 270 308 310 305 306 311 307 300 297 297 297 294 300 299 295 304 293 300
181 168 168 196 189 168 186 175 146 138 141 145 141 127 106 133 150 147 153 154 152 147 140 138 137 194 306 314 309 306 306 302 296 299 298 298 300 301 305 307 308 307 310 313
Height
1474 1479 1481 1485 1489 1494 1500 1504 1506 1503 1498 1499 1497 1491 1480 1475 1477 1477 1478 1480 1479 1477 1478 1477 1477 1477 1477 1477 1476 1475 1474 1473 1473 1474 1475 1476 1478 1480 1480 1480 1480 1479 1479 1478
1474 1474 1476 1481 1487 1492 1498 1502 1504 1501 1497 1497 1495 1488 1477 1473 1473 1473 1476 1479 1479 1479 1479 1479 1479 1479 1479 1478 1478 1476 1475 1475 1474 1474 1475 1476 1477 1478 1479 1479 1479 1478 1477 1476
1466 1468 1474 1481 1488 1494 1498 1501 1502 1503 1499 1494 1494 1487 1478 1471 1471 1472 1474 1477 1479 1480 1480 1480 1480 1480 1480 1480 1479 1478 1477 1477 1476 1477 1477 1477 1478 1479 1480 1479 1479 1478 1476 1475
1468 1467 1472 1480 1486 1491 1497 1496 1498 1501 1506 1507 1501 1504 1484 1474 1472 1473 1474 1477 1479 1481 1481 1481 1481 1481 1481 1481 1481 1481 1480 1479 1479 1479 1479 1479 1480 1480 1480 1480 1480 1478 1476 1474
1466 1467 1471 1478 1482 1486 1491 1491 1496 1499 1503 1508 1503 1504 1487 1475 1473 1472 1473 1476 1479 1481 1482 1482 1482 1482 1483 1483 1483 1483 1483 1482 1482 1482 1482 1481 1481 1482 1482 1481 1480 1478 1475 1473
1466 1466 1469 1473 1479 1484 1487 1493 1498 1503 1506 1511 1501 1503 1490 1477 1468 1467 1470 1474 1477 1480 1482 1483 1483 1484 1484 1485 1485 1485 1485 1484 1485 1484 1484 1484 1483 1483 1482 1480 1478 1476 1473 1471
1467 1468 1468 1470 1480 1485 1489 1498 1509 1510 1514 1510 1496 1498 1484 1464 1461 1461 1464 1470 1475 1479 1481 1482 1483 1484 1485 1485 1486 1486 1486 1486 1486 1486 1485 1485 1484 1483 1481 1479 1476 1473 1470 1467
1464 1470 1468 1468 1472 1481 1487 1493 1507 1512 1512 1506 1496 1497 1475 1461 1458 1457 1460 1466 1473 1478 1480 1481 1483 1484 1485 1486 1486 1487 1487 1486 1486 1486 1485 1485 1484 1482 1480 1477 1475 1471 1468 1465
1458 1464 1464 1464 1466 1474 1485 1490 1491 1501 1502 1506 1497 1486 1469 1458 1458 1457 1460 1465 1471 1475 1478 1480 1482 1483 1484 1485 1486 1487 1487 1486 1486 1486 1485 1484 1483 1481 1478 1476 1472 1469 1465 1461
1449 1463 1462 1463 1466 1470 1473 1481 1495 1498 1502 1502 1494 1486 1475 1460 1459 1461 1463 1465 1469 1474 1477 1479 1481 1482 1484 1485 1485 1486 1486 1486 1486 1485 1484 1483 1481 1479 1476 1473 1469 1466 1462 1457
1445 1458 1465 1464 1465 1469 1476 1481 1483 1491 1496 1501 1499 1486 1467 1463 1459 1460 1463 1465 1469 1472 1475 1477 1479 1481 1483 1484 1485 1485 1485 1485 1485 1484 1483 1481 1479 1476 1473 1469 1465 1461 1457 1453
1443 1453 1464 1463 1460 1460 1464 1471 1479 1489 1495 1497 1499 1487 1462 1461 1457 1458 1462 1466 1469 1472 1474 1476 1478 1480 1482 1483 1484 1484 1484 1484 1483 1483 1481 1479 1476 1473 1469 1466 1461 1457 1454 1449
1440 1449 1462 1468 1467 1463 1462 1466 1469 1476 1486 1498 1497 1482 1462 1460 1458 1458 1461 1465 1468 1470 1472 1474 1476 1478 1480 1482 1482 1483 1483 1483 1482 1481 1479 1476 1473 1469 1466 1462 1458 1453 1450 1445
1433 1442 1449 1457 1456 1459 1462 1464 1467 1472 1482 1489 1486 1474 1464 1461 1460 1460 1461 1463 1466 1468 1470 1472 1475 1477 1479 1480 1481 1481 1482 1481 1480 1478 1475 1472 1469 1465 1462 1458 1454 1450 1446 1441
1431 1439 1441 1444 1445 1448 1451 1456 1462 1464 1467 1474 1471 1470 1462 1460 1459 1460 1461 1462 1464 1466 1468 1471 1473 1476 1477 1479 1480 1480 1480 1479 1477 1474 1471 1468 1465 1462 1459 1455 1451 1446 1442 1437
1429 1436 1440 1445 1445 1445 1447 1450 1455 1456 1459 1462 1461 1463 1457 1458 1458 1459 1460 1461 1463 1465 1467 1470 1473 1475 1476 1478 1478 1478 1477 1475 1473 1471 1468 1465 1462 1459 1455 1451 1446 1442 1437 1432
1431 1434 1442 1450 1446 1444 1449 1446 1450 1452 1452 1455 1459 1457 1455 1457 1458 1459 1460 1461 1463 1465 1467 1469 1471 1473 1475 1476 1476 1475 1474 1472 1470 1467 1465 1462 1458 1455 1451 1447 1442 1437 1432 1427
1429 1434 1443 1451 1448 1455 1443 1440 1441 1447 1451 1450 1450 1452 1454 1456 1459 1460 1461 1462 1463 1465 1466 1468 1470 1472 1473 1473 1473 1472 1471 1469 1467 1464 1462 1458 1455 1451 1447 1443 1438 1433 1428 1423
1426 1432 1443 1451 1450 1446 1442 1439 1441 1445 1451 1450 1451 1453 1456 1457 1459 1461 1461 1462 1463 1464 1466 1467 1469 1470 1471 1471 1470 1469 1467 1466 1464 1461 1458 1455 1451 1447 1443 1438 1434 1429 1423 1417
1429 1431 1440 1447 1448 1449 1436 1435 1435 1441 1454 1450 1450 1453 1456 1457 1463 1463 1461 1462 1462 1463 1464 1466 1467 1468 1469 1468 1467 1466 1464 1463 1460 1458 1455 1451 1447 1443 1439 1435 1430 1424 1418 1412
1433 1437 1441 1444 1444 1440 1433 1433 1436 1448 1447 1449 1450 1453 1455 1457 1460 1460 1460 1460 1461 1462 1463 1464 1465 1466 1466 1465 1464 1463 1461 1459 1457 1454 1451 1448 1444 1440 1435 1430 1425 1419 1413 1406
1431 1438 1441 1444 1445 1441 1432 1434 1438 1440 1443 1446 1450 1452 1454 1456 1457 1457 1458 1458 1459 1460 1461 1462 1463 1463 1463 1462 1461 1460 1458 1456 1453 1451 1448 1444 1440 1436 1431 1425 1420 1414 1408 1400
1429 1428 1431 1433 1435 1432 1430 1432 1435 1438 1442 1446 1449 1452 1453 1454 1455 1455 1455 1456 1457 1458 1459 1460 1460 1460 1460 1459 1458 1456 1454 1452 1449 1446 1443 1440 1435 1431 1426 1421 1414 1408 1402 1395
1427 1427 1430 1432 1432 1431 1432 1434 1437 1440 1443 1446 1448 1450 1451 1452 1452 1453 1453 1454 1455 1456 1457 1457 1458 1457 1457 1456 1454 1452 1450 1448 1445 1442 1438 1434 1430 1425 1420 1415 1410 1403 1397 1390
1421 1425 1428 1430 1431 1433 1434 1435 1438 1440 1442 1444 1446 1447 1448 1449 1449 1450 1450 1451 1452 1453 1454 1454 1454 1454 1454 1453 1451 1449 1447 1444 1441 1437 1433 1429 1424 1419 1414 1409 1404 1398 1392 1388
1419 1421 1424 1425 1425 1428 1431 1434 1436 1439 1441 1442 1443 1444 1445 1446 1447 1447 1447 1448 1449 1450 1451 1451 1451 1451 1450 1449 1448 1446 1443 1440 1436 1431 1427 1423 1418 1413 1408 1402 1396 1391 1388 1383